Wind_Speed
11 12 12 12 12 13 13 13 13 12 12 13 14 14 14 13 12 12 12 12 11 10 10 9 9 10 10 11 12 12 13 14 14 15 15 15 15 15 15 15 15 14 13 13
12 13 13 13 13 14 14 14 15 14 13 15 16 15 14 14 13 13 13 13 12 12 11 11 10 10 11 11 11 12 13 13 14 15 15 15 15 15 15 15 15 14 13 13
13 14 14 14 14 15 16 16 16 15 14 16 16 16 15 15 14 14 14 14 13 13 12 12 12 11 11 11 12 12 12 13 14 15 15 14 14 15 15 14 14 14 13 13
14 15 16 14 15 16 17 16 17 16 17 17 16 16 16 15 15 15 15 14 15 14 14 13 13 13 12 12 12 12 12 13 14 15 15 14 14 14 14 14 14 14 13 13
16 16 16 15 16 17 17 17 18 18 18 18 17 17 16 16 17 16 16 16 16 15 15 15 15 14 14 13 13 13 13 13 14 14 15 15 14 13 13 13 13 13 13 13
18 18 18 16 17 17 18 19 19 19 18 18 18 18 18 18 18 17 17 17 17 17 16 16 16 16 15 15 14 14 14 14 14 14 14 14 14 14 13 13 13 13 13 13
21 21 21 20 19 19 20 21 20 20 20 19 19 19 20 20 19 19 19 19 19 19 18 18 18 17 17 16 16 16 15 15 15 15 15 15 15 14 14 14 13 13 13 13
24 24 24 23 23 23 23 23 22 22 22 22 22 22 22 22 22 21 21 21 21 21 20 20 20 19 19 19 18 17 17 17 16 16 16 15 15 15 15 15 15 14 14 14
27 27 27 27 27 27 26 26 26 25 25 25 25 24 25 24 24 24 23 23 23 23 23 22 22 22 21 21 20 20 19 19 18 18 17 17 16 16 16 16 16 16 16 16
30 30 30 30 30 30 30 30 29 28 28 28 28 27 27 27 27 26 26 26 25 25 25 25 24 24 24 23 22 22 22 21 20 20 19 19 18 18 18 18 17 17 17 17
35 34 34 34 34 34 34 33 33 32 31 31 31 30 30 30 29 29 28 28 28 28 27 27 27 26 26 25 25 24 24 23 23 22 21 21 20 20 19 19 19 19 19 19
38 38 38 37 37 37 37 37 37 36 35 35 34 34 33 32 32 32 31 31 30 30 29 29 29 28 28 27 27 26 26 25 25 24 24 23 23 22 22 21 21 21 21 21
42 41 41 40 40 40 40 40 39 39 38 37 37 36 36 35 34 34 34 33 33 32 32 31 31 31 30 30 29 29 28 27 27 26 26 25 25 24 24 23 23 23 23 23
44 44 43 42 42 42 42 41 41 40 40 39 39 38 38 38 37 36 36 36 35 35 34 34 33 33 33 32 32 31 31 30 29 29 28 28 27 27 26 26 26 26 26 26
46 46 46 45 44 44 44 44 43 42 42 42 42 41 41 41 40 39 39 38 37 37 37 36 36 35 35 35 34 34 33 32 32 31 31 30 30 29 29 29 29 29 29 28
48 48 48 48 47 46 46 46 45 45 44 44 44 44 43 43 43 42 41 41 40 39 38 38 38 38 38 37 37 37 36 35 34 34 33 33 33 32 31 31 31 31 31 31
49 49 49 49 49 49 48 48 47 46 46 46 46 46 45 45 45 44 43 43 42 42 41 40 40 40 40 40 40 39 38 37 37 37 36 35 35 34 34 34 34 33 33 33
50 50 50 50 49 49 49 48 48 48 47 47 47 47 47 46 46 45 45 45 45 44 43 42 42 42 42 42 41 41 40 40 39 39 38 38 37 37 36 36 36 36 36 36
49 49 49 49 49 49 48 48 48 48 48 47 47 47 47 47 47 46 46 47 47 46 46 45 44 44 44 44 43 43 42 42 42 41 41 40 40 39 39 38 38 38 38 38
49 48 48 49 48 48 48 47 47 47 47 47 47 47 47 48 47 47 47 47 47 48 47 47 46 45 45 44 44 44 44 43 43 42 42 42 41 40 40 40 40 40 40 40
47 47 47 47 47 47 47 47 47 47 47 47 47 47 47 48 48 48 48 47 48 48 48 48 47 46 46 45 45 44 44 43 43 43 42 42 42 42 42 42 42 41 41 41
45 46 46 46 46 46 47 47 46 46 47 47 47 47 47 47 48 49 48 47 47 48 48 48 48 47 47 46 45 45 44 44 44 44 43 43 43 43 42 42 42 42 42 42
44 44 44 45 45 45 45 46 46 46 45 45 46 46 46 46 46 47 47 47 47 47 47 47 47 47 47 47 46 46 45 44 44 44 44 44 44 43 43 43 43 43 43 42
43 42 42 42 42 42 42 43 44 44 44 44 44 45 45 45 45 45 46 46 46 47 47 47 47 47 47 47 47 46 46 46 46 45 45 44 44 43 43 43 43 43 43 42
41 40 40 39 39 39 40 41 41 41 41 42 42 43 43 43 43 43 44 45 46 46 46 46 46 47 47 48 47 47 46 46 46 45 45 44 44 43 43 43 43 43 42 42
40 40 40 39 39 38 39 39 39 38 38 39 39 40 41 41 42 42 42 42 43 44 45 45 45 45 46 47 47 46 46 45 45 44 44 43 43 43 43 43 42 41 41 41
39 39 38 38 38 37 37 37 37 37 37 37 37 37 38 39 39 40 40 40 41 41 42 43 44 45 45 45 44 44 43 43 43 43 43 43 42 43 43 42 42 41 41 41
Wind_Direction
256 260 261 261 262 262 264 266 266 263 262 259 259 259 256 255 254 253 253 255 259 266 275 286 297 308 316 324 331 336 341 344 346 348 351 353 355 357 358 360 1 1 2 1
261 263 263 262 264 265 266 267 267 266 264 260 259 260 257 255 255 255 256 256 258 263 272 282 291 301 310 318 324 330 336 341 345 346 347 349 352 354 356 357 359 359 358 357
265 267 266 265 264 265 267 268 268 266 264 261 261 260 257 254 254 256 257 257 257 262 270 278 286 295 302 310 318 323 329 334 339 343 343 344 346 349 352 355 356 357 356 356
270 269 270 270 265 265 267 269 269 267 264 263 262 260 258 256 255 256 258 257 258 261 267 274 281 288 294 301 309 315 321 326 331 336 339 340 341 343 346 350 353 355 356 355
271 272 272 269 268 267 268 268 267 266 265 264 262 259 257 257 256 257 259 259 259 261 265 271 277 283 288 293 300 307 313 318 323 329 333 335 336 337 339 342 346 349 350 351
271 271 273 272 269 268 268 267 267 267 265 263 262 259 257 258 258 258 260 260 261 262 265 269 273 278 283 288 293 299 305 310 315 320 325 328 329 329 330 334 337 340 343 344
271 271 272 271 269 268 267 268 267 268 266 263 261 259 258 258 259 258 259 260 261 262 264 267 270 274 278 283 287 292 297 302 307 311 316 320 322 322 322 323 326 329 332 335
271 271 272 270 269 268 267 267 267 266 265 264 263 262 260 259 259 260 260 261 261 262 264 265 268 271 274 278 282 287 291 294 299 303 307 311 314 315 315 315 316 319 322 324
270 271 272 271 269 268 267 266 266 265 265 264 264 263 262 261 260 260 260 261 261 262 263 264 266 269 272 275 278 282 285 288 292 295 299 302 305 308 309 310 311 312 313 316
269 269 269 268 268 268 267 266 265 265 265 264 263 262 262 262 262 261 261 261 261 261 262 263 265 267 269 272 275 278 281 284 287 289 291 294 297 301 304 305 305 307 308 309
267 266 265 265 266 265 265 265 265 265 265 265 264 262 262 262 262 261 261 261 261 261 262 262 264 266 268 270 272 274 277 280 282 284 286 289 291 294 297 299 300 301 302 304
267 266 265 264 264 264 264 265 265 265 265 265 264 263 262 262 261 261 261 261 261 262 262 262 263 264 265 267 269 271 274 276 278 280 282 284 287 289 291 294 295 297 297 299
268 267 266 265 264 264 264 264 264 264 264 264 264 264 263 262 261 261 261 261 261 261 262 262 262 263 264 265 267 269 271 273 275 276 278 281 283 285 286 288 290 293 294 295
267 267 266 266 265 265 264 263 263 263 264 263 263 263 262 261 260 260 261 260 260 260 260 261 261 262 263 264 266 267 269 271 272 273 275 278 280 282 283 285 287 289 291 292
268 267 266 265 265 265 265 264 263 263 263 262 262 262 261 261 260 259 259 259 259 259 259 259 260 261 262 263 264 266 267 269 270 272 273 276 278 280 281 283 285 288 289 289
269 269 268 266 265 264 264 264 264 263 262 262 261 261 261 260 259 258 258 257 258 258 258 259 259 260 261 261 263 264 266 267 268 270 272 275 276 278 280 282 284 286 287 287
270 269 268 267 266 265 265 265 265 264 263 261 261 260 260 259 259 258 257 256 256 257 257 258 258 259 259 260 261 263 265 266 267 269 271 273 275 277 279 281 282 284 285 286
270 270 269 269 268 267 266 266 265 264 263 262 260 260 259 258 258 257 255 255 255 255 256 257 257 258 259 260 261 262 263 265 267 268 270 271 273 276 277 279 281 282 283 285
270 269 269 269 268 267 266 265 265 265 264 263 261 259 258 258 257 255 254 253 253 254 255 256 257 258 259 259 261 262 263 264 266 267 269 271 272 274 276 278 279 281 283 284
270 269 268 268 268 267 266 265 265 264 263 263 262 260 258 257 256 255 254 253 252 252 252 253 254 256 257 258 260 261 262 263 265 266 268 270 271 273 274 276 278 280 282 283
270 270 270 269 268 267 265 265 264 263 262 262 261 260 259 257 256 255 254 254 253 252 252 252 253 255 256 258 259 261 261 262 263 265 267 269 271 273 274 276 277 279 280 282
270 269 270 269 269 267 266 266 265 264 261 260 260 260 260 259 258 256 254 254 253 252 252 253 254 254 256 258 260 261 262 263 264 265 267 269 270 272 274 276 277 279 280 282
270 270 270 269 268 268 266 265 265 264 262 260 259 259 259 259 258 257 256 254 254 253 252 252 253 254 255 257 258 260 261 263 264 265 266 268 270 272 273 275 277 278 280 281
270 270 270 270 269 267 265 264 264 264 263 260 259 259 259 259 258 257 256 254 253 252 251 251 252 253 254 256 257 259 261 263 264 264 265 267 269 271 273 274 276 277 279 281
271 270 270 270 269 268 266 265 264 265 264 262 260 259 259 259 258 257 256 255 254 253 252 252 252 253 254 255 257 259 260 262 263 264 266 267 268 270 272 273 275 277 279 280
271 272 272 271 270 270 268 267 266 265 265 264 262 260 260 259 258 257 255 255 255 253 252 251 250 251 253 254 256 257 259 261 263 264 265 266 268 269 271 273 274 276 278 279
272 272 271 272 272 271 269 268 266 266 265 264 263 261 259 258 257 256 255 254 254 253 251 250 250 251 252 254 256 258 259 260 261 263 265 267 268 269 270 272 274 275 277 278
Height
5822 5821 5821 5821 5822 5822 5822 5822 5822 5823 5822 5823 5822 5822 5822 5823 5823 5823 5824 5824 5824 5824 5823 5822 5821 5819 5817 5815 5813 5810 5807 5804 5801 5798 5794 5791 5787 5784 5780 5776 5773 5769 5766 5763
5819 5818 5818 5818 5818 5818 5818 5818 5818 5818 5819 5818 5818 5818 5819 5819 5820 5820 5820 5821 5821 5821 5820 5819 5818 5817 5815 5813 5811 5808 5806 5803 5800 5796 5793 5790 5786 5783 5780 5776 5773 5770 5766 5763
5816 5815 5814 5815 5815 5814 5814 5814 5814 5814 5815 5814 5814 5814 5815 5815 5816 5816 5817 5817 5817 5817 5817 5816 5815 5814 5812 5811 5808 5806 5804 5801 5798 5795 5792 5789 5785 5782 5779 5776 5773 5769 5766 5763
5812 5812 5811 5814 5811 5810 5810 5810 5809 5809 5810 5809 5810 5810 5810 5811 5811 5812 5812 5813 5813 5813 5813 5812 5812 5811 5809 5808 5806 5804 5801 5799 5796 5793 5790 5787 5784 5781 5778 5775 5772 5769 5766 5763
5808 5807 5807 5808 5807 5806 5805 5805 5805 5804 5805 5805 5805 5806 5806 5806 5807 5807 5808 5808 5808 5809 5808 5808 5807 5807 5806 5804 5803 5801 5799 5796 5794 5791 5788 5785 5782 5779 5777 5774 5771 5768 5766 5763
5803 5802 5802 5804 5802 5801 5802 5801 5800 5800 5800 5800 5800 5802 5802 5802 5802 5803 5803 5803 5803 5804 5804 5803 5803 5802 5801 5800 5799 5797 5795 5793 5791 5788 5786 5783 5780 5778 5775 5772 5770 5767 5765 5762
5797 5796 5796 5797 5796 5796 5797 5796 5795 5794 5794 5795 5795 5796 5797 5797 5797 5797 5797 5798 5798 5798 5798 5798 5798 5797 5796 5796 5794 5793 5791 5790 5788 5785 5783 5780 5778 5775 5773 5770 5768 5766 5763 5761
5791 5790 5792 5790 5789 5790 5790 5789 5788 5788 5788 5789 5789 5789 5790 5790 5791 5791 5791 5792 5792 5792 5792 5792 5792 5792 5791 5790 5789 5788 5787 5785 5783 5782 5779 5777 5775 5772 5770 5768 5765 5763 5761 5759
5784 5785 5783 5782 5782 5781 5781 5781 5781 5781 5781 5782 5782 5783 5783 5783 5784 5784 5784 5785 5785 5785 5785 5786 5786 5785 5785 5784 5784 5783 5781 5780 5779 5777 5775 5773 5771 5769 5767 5764 5762 5760 5758 5755
5774 5775 5774 5773 5772 5772 5772 5772 5772 5773 5773 5774 5774 5775 5775 5776 5776 5776 5777 5777 5778 5778 5778 5778 5778 5778 5778 5778 5777 5776 5775 5774 5773 5771 5770 5768 5766 5764 5762 5760 5758 5756 5754 5751
5764 5765 5764 5763 5762 5762 5762 5762 5763 5764 5764 5764 5765 5765 5766 5766 5767 5768 5768 5769 5769 5770 5770 5770 5770 5770 5770 5770 5770 5769 5768 5767 5766 5765 5764 5762 5761 5759 5757 5755 5753 5751 5749 5747
5752 5753 5752 5752 5752 5751 5751 5751 5752 5753 5754 5754 5754 5755 5756 5757 5757 5758 5759 5759 5760 5760 5761 5761 5761 5762 5762 5762 5761 5761 5760 5760 5759 5758 5757 5755 5754 5753 5751 5749 5748 5746 5744 5742
5738 5738 5738 5739 5739 5739 5739 5740 5740 5741 5742 5743 5743 5744 5745 5746 5746 5747 5748 5749 5749 5750 5751 5751 5752 5752 5752 5752 5752 5752 5752 5751 5751 5750 5749 5748 5747 5745 5744 5743 5741 5739 5737 5735
5724 5724 5724 5725 5725 5726 5726 5727 5728 5728 5729 5730 5731 5732 5732 5734 5735 5735 5736 5737 5738 5739 5740 5741 5741 5742 5742 5742 5743 5743 5742 5742 5742 5741 5740 5739 5738 5737 5736 5735 5733 5732 5730 5728
5709 5709 5709 5710 5711 5712 5712 5713 5714 5715 5716 5717 5718 5719 5720 5721 5722 5723 5724 5725 5726 5727 5728 5729 5730 5731 5732 5732 5732 5732 5732 5732 5732 5732 5731 5730 5729 5728 5727 5726 5725 5723 5721 5720
5694 5693 5694 5694 5695 5696 5697 5698 5699 5700 5701 5702 5703 5704 5705 5707 5708 5709 5711 5712 5713 5715 5716 5717 5718 5719 5720 5720 5720 5721 5721 5721 5721 5721 5721 5720 5719 5719 5718 5716 5715 5713 5712 5710
5677 5677 5678 5678 5679 5680 5681 5682 5683 5684 5685 5687 5688 5689 5690 5692 5693 5695 5697 5698 5700 5701 5703 5704 5705 5706 5707 5708 5708 5709 5709 5710 5710 5710 5710 5709 5709 5708 5707 5706 5705 5703 5702 5700
5661 5661 5661 5662 5662 5663 5664 5665 5666 5667 5669 5670 5671 5673 5674 5676 5678 5680 5682 5683 5685 5687 5689 5690 5692 5693 5694 5694 5695 5696 5697 5697 5698 5698 5698 5698 5697 5697 5696 5695 5694 5692 5691 5689
5644 5644 5644 5644 5645 5646 5647 5648 5649 5650 5651 5653 5654 5656 5658 5659 5661 5663 5665 5667 5670 5672 5674 5676 5677 5678 5680 5681 5682 5683 5683 5684 5685 5685 5685 5685 5685 5684 5684 5683 5682 5681 5679 5678
5627 5627 5627 5627 5628 5629 5629 5630 5632 5633 5634 5636 5637 5639 5641 5643 5644 5647 5649 5651 5654 5656 5658 5660 5662 5663 5665 5667 5668 5669 5669 5670 5671 5671 5671 5672 5672 5671 5671 5670 5669 5668 5667 5665
5611 5611 5611 5611 5611 5612 5612 5613 5615 5616 5617 5618 5620 5622 5623 5625 5627 5629 5632 5635 5637 5639 5642 5644 5646 5648 5650 5652 5653 5654 5655 5656 5657 5657 5658 5658 5658 5658 5657 5657 5656 5655 5654 5652
5595 5595 5594 5595 5595 5595 5596 5596 5597 5599 5600 5601 5603 5605 5606 5608 5610 5612 5615 5618 5620 5623 5625 5628 5631 5633 5635 5636 5637 5639 5640 5641 5642 5643 5644 5644 5644 5644 5644 5643 5643 5642 5641 5639
5579 5579 5579 5579 5579 5579 5580 5580 5581 5582 5583 5584 5586 5588 5590 5592 5593 5596 5598 5601 5603 5606 5609 5612 5615 5617 5619 5620 5622 5624 5625 5626 5627 5628 5629 5630 5630 5630 5630 5629 5629 5628 5627 5626
5564 5564 5563 5563 5563 5563 5564 5565 5565 5566 5567 5568 5570 5571 5573 5575 5577 5579 5581 5584 5587 5589 5592 5595 5598 5600 5603 5605 5606 5608 5610 5611 5613 5614 5614 5615 5615 5616 5616 5615 5615 5614 5613 5612
5549 5549 5549 5549 5549 5549 5549 5550 5550 5551 5552 5553 5554 5556 5557 5559 5561 5563 5565 5568 5570 5573 5576 5579 5582 5584 5587 5589 5591 5593 5594 5596 5597 5598 5600 5600 5601 5601 5601 5601 5601 5600 5599 5598
5535 5535 5535 5535 5535 5535 5535 5536 5536 5537 5538 5539 5540 5541 5542 5544 5546 5548 5550 5552 5555 5557 5560 5563 5566 5568 5571 5573 5575 5577 5579 5581 5582 5583 5585 5586 5586 5587 5587 5587 5587 5586 5585 5584
5522 5521 5521 5522 5521 5521 5522 5522 5523 5524 5524 5525 5527 5528 5529 5530 5532 5534 5536 5538 5541 5543 5546 5548 5551 5554 5556 5559 5561 5563 5564 5566 5568 5569 5570 5571 5572 5572 5573 5573 5573 5572 5571 5571